Location: Gorze? G�rny
(49.8500°N, 19.5000°E)
Time: 03:38:00
(UTC+00:00)

Cosmos 1238 Rocket - Pass Details

Date: 13 May 2021
Orbit: 374 x 1021 km, 82.9° (Epoch: 20 June)

Event Time Altitude Azimuth Distance (km) Brightness Sun altitude
Rises 20:19:35 0° 353° (N) 3,698 8.2 -15.0°
Reaches altitude 10° 20:22:25 10° 0° (N) 2,684 7.2 -15.2°
Maximum altitude 20:28:14 42° 71° (ENE) 1,216 4.4 -15.7°
Enters shadow 20:31:08 23° 127° (SE) 1,643 4.7 -16.0°
